Location: Tofino
(49.1330°N, 125.9000°W)
Time: 16:01:50
(UTC-08:00)

Tiangong 2 - Visible Passes

Search period start: 18 February 2018 00:00
Search period end: 28 February 2018 00:00
Orbit: 385 x 388 km, 42.8° (Epoch: 18 February)

Date Brightness Start Highest point End Pass type
(mag) Time Alt. Az. Time Alt. Az. Time Alt. Az.
18 Feb 2.9 18:48:25 10° WSW 18:51:04 24° S 18:53:40 10° SE visible
18 Feb 4.2 20:25:45 10° SW 20:25:56 11° SW 20:25:56 11° SW visible
19 Feb 3.4 19:26:22 10° WSW 19:28:30 17° SSW 19:29:55 13° SSE visible
20 Feb 3.3 18:27:16 10° WSW 18:29:46 21° SSW 18:32:15 10° SE visible
21 Feb 3.9 19:05:43 10° SW 19:07:07 12° SSW 19:08:30 10° S visible
